This is the latest recevied weather packets stored in our database for station/object W9WRP. If no packets are shown the sender has not sent any weather packets the latest 10 day(s).
| Time | Temp. | Humidity | Pressure | Rain* | Wind** | Luminosity | Snow |
|---|---|---|---|---|---|---|---|
| 1787540091 | 37.22° C | 22% | 1013.6 hPa | 0 mm | - | 0 W/m² | - |
| 1787539786 | 37.22° C | 22% | 1013.5 hPa | 0 mm | - | 0 W/m² | - |
| 1787539482 | 37.22° C | 24% | 1013.9 hPa | 0 mm | - | 0 W/m² | - |
| 1787539176 | 37.78° C | 23% | 1013.8 hPa | 0 mm | - | 0 W/m² | - |
| 1787538872 | 37.78° C | 22% | 1013.9 hPa | 0 mm | - | 0 W/m² | - |
| 1787538569 | 37.78° C | 21% | 1013.6 hPa | 0 mm | - | 0 W/m² | - |
| 1787538265 | 37.78° C | 21% | 1013.6 hPa | 0 mm | - | 0 W/m² | - |
| 1787537960 | 38.33° C | 21% | 1013.5 hPa | 0 mm | - | 0 W/m² | - |
| 1787537657 | 38.33° C | 21% | 1013.4 hPa | 0 mm | - | 0 W/m² | - |
| 1787537353 | 38.33° C | 21% | 1013.3 hPa | 0 mm | - | 1 W/m² | - |
| 1787537048 | 38.33° C | 21% | 1013.1 hPa | 0 mm | - | 3 W/m² | - |
| 1787536747 | 38.33° C | 21% | 1012.9 hPa | 0 mm | - | 4 W/m² | - |
| 1787536444 | 38.33° C | 21% | 1012.9 hPa | 0 mm | - | 5 W/m² | - |
| 1787536142 | 38.89° C | 21% | 1012.9 hPa | 0 mm | - | 7 W/m² | - |
| 1787535838 | 38.89° C | 21% | 1012.8 hPa | 0 mm | - | 8 W/m² | - |
| 1787535538 | 38.89° C | 21% | 1012.9 hPa | 0 mm | - | 10 W/m² | - |
| 1787535234 | 38.89° C | 21% | 1012.7 hPa | 0 mm | - | 11 W/m² | - |
| 1787534930 | 38.89° C | 21% | 1012.8 hPa | 0 mm | - | 13 W/m² | - |
| 1787534628 | 38.89° C | 20% | 1012.9 hPa | 0 mm | - | 16 W/m² | - |
| 1787534327 | 39.44° C | 21% | 1012.8 hPa | 0 mm | - | 19 W/m² | - |
| 1787534023 | 39.44° C | 20% | 1012.7 hPa | 0 mm | - | 22 W/m² | - |
| 1787533718 | 39.44° C | 20% | 1012.7 hPa | 0 mm | - | 27 W/m² | - |
| 1787533415 | 39.44° C | 20% | 1012.8 hPa | 0 mm | - | 29 W/m² | - |
| 1787533115 | 40.56° C | 20% | 1012.8 hPa | 0 mm | - | 57 W/m² | - |
| 1787532810 | 41.11° C | 19% | 1012.8 hPa | 0 mm | - | 31 W/m² | - |
* Rain latest hour (hover to see other rain measurements)
** Current wind speed in m/s (hover to see current wind gust speed)